Wind_Speed
60 57 52 49 48 44 40 38 35 33 32 31 29 28 28 26 24 24 22 24 24 24 22 24 24 27 29 32 34 37 38 37 37 42 47 50 51 46 49 58 66 71 79 87 99 94 91 90 82 80 82 82 78 71
55 50 44 47 44 38 35 33 31 30 29 27 25 24 23 21 20 20 19 18 18 19 21 25 29 29 32 35 34 34 33 33 41 44 48 49 50 48 51 55 61 65 69 80 87 93 98 96 94 85 79 79 82 79
48 41 43 42 37 33 30 28 27 26 25 23 21 20 18 18 18 17 15 15 17 19 22 25 22 21 26 28 30 34 41 43 41 43 43 47 49 52 53 54 58 59 62 70 84 90 89 98 101 94 95 92 87 84
37 41 39 36 32 29 26 25 24 23 21 19 17 16 16 15 14 13 13 16 17 17 17 18 24 25 26 31 35 35 34 38 40 40 42 45 49 49 50 51 54 56 59 65 74 82 92 92 97 99 99 98 94 95
38 36 34 30 28 26 25 24 24 24 21 16 14 14 15 14 14 13 14 16 16 18 23 24 25 28 30 29 30 32 34 35 36 39 42 43 44 45 45 48 50 52 57 62 65 70 80 97 98 94 98 100 101 102
34 31 28 26 25 25 25 25 24 23 19 16 13 14 15 14 14 17 18 19 20 20 20 22 24 24 25 28 32 32 31 32 35 36 38 40 42 42 43 45 46 51 57 64 65 70 78 82 89 98 100 102 96 96
28 25 24 23 24 26 27 26 26 23 18 16 15 13 12 7 6 10 14 17 18 18 20 22 23 25 26 27 28 29 30 31 31 32 34 35 36 38 39 41 45 49 53 57 59 64 68 70 74 79 88 95 95 94
22 21 22 23 25 26 27 26 24 22 18 15 15 12 10 11 14 15 16 17 19 20 21 22 23 24 25 26 26 26 27 29 30 30 30 32 33 35 35 40 40 42 47 49 51 57 65 69 72 74 76 81 85 88
19 19 22 23 23 23 25 24 21 19 15 14 15 14 13 15 14 14 16 18 20 21 22 22 23 24 26 25 25 25 26 26 26 28 30 30 31 33 36 38 39 42 45 46 50 54 57 61 68 72 73 74 76 78
17 17 18 20 21 22 21 19 18 18 17 15 16 15 17 17 16 16 17 18 20 22 23 25 25 26 23 24 25 25 26 28 29 29 29 30 32 34 35 38 39 39 42 44 47 51 54 57 61 65 70 73 76 77
12 14 16 19 21 20 15 14 16 19 20 18 17 16 17 17 19 21 21 23 23 24 24 23 24 24 25 24 24 26 28 26 26 26 27 29 31 32 34 35 36 38 39 42 45 49 52 55 58 60 64 67 71 74
11 12 15 16 17 15 16 19 21 23 20 20 20 21 22 23 23 24 23 22 21 22 24 24 25 24 24 25 25 26 25 25 24 24 26 28 30 31 32 33 32 33 35 38 41 43 46 49 52 55 58 61 64 66
10 11 12 13 15 18 21 20 17 16 20 21 22 22 24 25 24 24 25 25 25 23 21 21 21 24 25 25 25 24 25 26 25 26 29 29 29 30 30 28 28 30 33 36 39 41 42 44 47 50 53 56 58 61
13 13 14 15 17 19 19 17 17 21 24 25 26 25 25 24 21 18 16 17 19 20 21 22 21 20 20 19 19 20 21 22 23 23 24 26 28 30 30 30 32 34 37 39 42 43 45 47 49 51 53 55 56 59
14 15 17 18 19 20 20 20 21 22 22 22 21 19 17 19 21 22 23 22 21 21 20 20 19 19 19 20 19 19 20 22 20 20 22 25 28 31 32 32 32 35 37 39 40 41 43 45 45 47 49 52 54 56
17 18 20 23 24 25 25 23 23 22 21 19 20 21 22 22 21 19 19 18 17 17 17 15 14 14 14 13 13 14 17 15 16 20 23 26 29 32 33 34 36 37 39 41 42 44 45 47 49 50 52 54 54 55
22 21 21 23 26 27 26 25 24 23 23 22 21 19 17 15 13 11 11 10 9 9 8 8 8 8 8 8 9 8 10 11 13 15 19 22 23 24 27 30 31 33 34 35 37 40 41 43 44 45 46 46 47 47
28 28 25 25 26 25 24 22 19 19 19 17 17 14 14 13 13 13 12 12 12 11 10 9 8 7 5 4 2 3 3 3 4 6 8 12 14 15 17 19 22 24 26 28 30 32 34 36 37 38 39 40 41 42
28 28 27 28 28 27 26 24 22 20 19 18 17 17 16 15 15 15 15 15 15 15 13 12 11 10 9 8 8 7 6 4 2 2 3 5 7 9 11 13 15 18 20 22 25 28 30 32 34 36 38 41 43 45
30 31 31 30 30 29 29 28 28 27 27 26 26 26 25 26 26 26 26 27 27 26 25 23 21 19 16 13 10 7 5 2 1 4 7 8 11 14 17 18 21 23 25 28 30 32 35 36 39 41 44 46 49 50
38 39 40 40 39 37 38 38 38 38 38 38 38 37 36 35 34 33 32 30 27 25 23 21 17 14 11 7 4 3 5 8 11 13 16 17 20 22 25 27 30 33 35 37 39 42 44 46 48 50 52 54 55 57
39 39 40 40 40 39 38 38 39 39 38 37 37 35 34 32 30 29 27 24 21 18 15 12 9 7 5 6 8 11 14 17 20 22 25 27 29 31 34 36 39 41 43 45 48 49 50 51 53 54 54 55 55 55
38 37 36 36 37 37 38 38 36 35 35 33 32 30 28 25 23 21 18 14 12 9 8 9 10 11 14 16 19 21 24 26 29 31 33 36 38 40 41 43 44 47 48 49 51 51 52 52 53 54 54 53 52 52
37 39 39 38 37 35 34 33 32 31 29 26 24 22 20 17 15 13 12 11 12 13 13 15 18 21 24 27 31 33 36 37 39 41 43 45 47 49 49 49 48 49 49 49 49 49 48 48 48 47 47 46 46 46
35 36 35 33 33 32 30 28 26 23 20 17 15 14 12 11 12 13 13 14 16 19 23 25 26 28 30 32 35 36 40 43 46 48 48 50 51 52 51 50 48 48 47 47 47 46 45 46 45 46 45 45 45 45
33 34 32 30 29 26 24 21 18 14 13 12 11 10 11 12 13 16 18 20 22 23 26 29 31 31 34 37 39 42 46 49 50 51 52 52 50 49 48 49 48 44 43 43 43 44 44 43 43 43 43 43 43 44
29 29 26 24 22 19 17 13 10 10 10 9 9 10 12 15 17 19 21 23 24 27 29 31 34 37 40 44 46 48 51 52 53 53 52 49 46 44 43 42 41 42 42 41 40 40 41 41 41 41 42 43 43 44
26 22 19 16 14 12 11 10 9 8 6 8 10 13 15 17 19 22 23 25 27 30 33 35 38 41 44 47 49 52 54 54 53 50 48 45 43 41 40 39 39 39 38 39 39 39 39 41 42 42 42 42 42 42
19 16 13 12 11 9 7 5 6 8 10 11 12 14 17 21 24 26 28 29 32 35 38 40 43 45 48 51 53 54 54 52 49 49 46 43 39 39 39 38 38 38 38 38 39 40 40 41 40 40 40 39 40 39
15 13 12 9 7 4 4 7 8 10 13 15 16 19 23 26 29 31 34 35 37 38 41 43 46 49 50 52 53 53 51 49 48 45 43 42 41 40 39 38 38 37 37 38 38 38 38 38 37 37 37 37 37 36
13 10 6 4 0 4 7 9 12 14 16 18 21 25 29 32 34 37 39 41 42 43 45 48 49 50 51 52 51 50 50 47 45 43 42 41 40 39 38 37 37 37 38 37 37 37 36 36 36 35 35 35 34 34
9 6 3 3 7 11 13 16 19 21 22 26 30 33 36 38 40 42 43 45 46 48 50 50 50 50 51 51 50 49 47 45 44 42 41 39 38 37 37 37 37 38 37 37 37 36 35 35 34 34 34 33 33 33
9 8 9 12 15 19 22 24 27 28 30 33 37 40 42 44 46 47 48 49 50 51 51 51 50 50 50 50 48 46 45 43 42 40 39 38 37 37 37 37 37 37 36 36 35 35 34 34 34 34 33 33 34 34
Wind_Direction
276 279 285 289 291 288 286 285 284 282 280 278 276 274 270 267 263 260 254 247 243 242 238 230 223 220 221 225 218 216 219 218 217 219 220 221 223 219 219 218 220 220 217 217 218 218 218 222 227 231 229 230 232 235
275 281 285 288 286 284 284 283 283 280 276 274 273 269 267 264 259 253 252 245 239 228 219 213 215 213 213 213 210 211 214 214 215 215 216 217 220 219 218 218 221 223 220 219 220 221 220 224 223 227 231 233 236 237
276 280 283 283 280 281 281 280 278 274 270 269 269 267 262 257 251 245 237 222 219 215 210 209 209 207 208 210 209 205 203 206 210 214 215 216 219 220 220 218 221 222 222 221 222 223 222 226 229 228 229 233 236 238
274 278 278 275 275 275 273 269 266 264 261 261 260 257 252 247 239 230 218 216 214 211 206 196 198 198 197 198 201 206 210 209 211 212 214 216 218 220 221 222 222 222 222 223 224 224 224 227 230 230 230 232 236 238
272 272 269 269 268 266 263 261 258 256 254 250 246 243 235 226 216 205 200 200 194 188 193 197 192 192 195 197 197 200 204 206 208 211 214 217 220 223 224 225 223 223 226 228 226 226 226 227 229 233 235 235 235 237
265 264 265 263 261 259 254 250 247 248 242 236 232 231 227 219 211 203 198 191 192 193 188 189 193 193 195 195 198 198 201 206 209 212 215 218 220 221 223 226 227 226 226 228 226 223 227 231 232 233 236 238 237 238
259 260 258 256 251 246 244 243 241 239 236 225 223 225 224 209 199 204 199 191 182 184 184 188 190 191 190 191 195 198 199 202 207 210 213 217 219 221 222 225 227 228 230 233 231 231 235 238 238 238 240 243 245 244
255 254 250 246 244 243 241 239 235 231 227 218 213 210 197 184 191 187 185 188 182 182 182 186 184 185 188 189 192 196 198 202 206 210 213 216 217 219 220 224 228 229 233 235 235 233 234 235 240 241 242 245 246 247
248 243 242 241 239 237 237 234 227 222 212 204 197 194 176 181 188 183 179 180 179 179 179 180 180 184 185 188 189 194 200 200 203 207 210 213 216 219 221 222 223 226 231 233 235 236 236 236 239 242 244 246 249 250
240 234 230 225 223 226 227 223 215 206 200 190 189 182 167 177 171 174 172 173 170 172 173 178 181 175 182 185 187 193 200 203 207 209 211 211 213 217 221 224 226 227 231 234 235 236 238 239 241 242 245 247 250 252
226 223 218 216 217 218 207 195 192 191 192 182 175 169 161 162 162 163 164 166 169 167 170 176 176 179 177 188 193 199 203 208 208 205 206 212 216 218 221 225 226 226 227 230 233 236 239 241 243 245 247 249 251 254
205 204 203 206 206 201 181 182 185 186 181 171 166 163 165 162 169 164 167 168 166 172 173 176 178 182 187 191 196 199 200 205 208 209 210 215 219 222 225 227 228 230 231 233 235 238 240 242 246 248 250 251 253 255
170 176 178 180 181 179 181 183 175 163 162 161 161 166 164 168 170 170 171 169 173 174 177 178 181 186 186 189 195 201 205 207 209 214 220 224 229 232 237 239 238 239 241 241 243 244 246 248 250 252 254 255 257 258
143 146 153 159 164 167 167 162 153 156 164 165 164 167 171 175 179 172 162 164 166 173 180 183 185 185 187 193 204 210 211 216 220 222 225 234 239 243 243 243 244 244 243 245 246 248 250 251 253 255 257 259 261 263
123 131 138 143 143 143 145 146 152 161 166 164 162 163 158 159 162 167 169 171 175 177 177 180 182 186 192 196 202 210 216 224 229 230 235 238 243 250 255 259 258 259 259 260 259 259 259 261 262 262 263 264 267 269
120 127 132 134 134 134 139 146 150 154 156 151 151 157 165 168 171 171 173 174 177 180 181 185 191 196 202 207 216 223 234 243 233 233 239 245 249 251 254 257 259 260 260 262 264 264 265 266 267 267 267 267 269 271
117 121 130 136 139 144 148 149 150 153 153 155 159 165 163 161 158 161 161 157 158 152 150 150 148 164 187 191 201 223 230 237 236 232 236 244 252 255 258 259 261 262 261 262 262 261 262 264 267 268 270 271 271 271
123 121 126 129 132 137 140 144 145 146 145 142 140 136 132 132 132 130 126 125 129 135 140 145 149 160 163 173 191 219 257 295 290 282 278 270 267 266 266 267 268 268 267 266 267 266 266 266 267 268 269 270 270 272
117 119 124 125 126 127 129 127 127 126 126 123 121 119 118 117 114 110 108 111 111 109 107 107 109 101 102 109 121 132 139 143 153 204 253 261 268 269 269 269 269 269 268 268 267 267 267 268 268 269 271 273 273 274
113 114 114 113 114 118 116 116 117 117 115 115 117 117 116 113 109 109 112 115 115 115 112 111 110 109 109 109 106 105 107 125 225 275 280 283 288 291 292 290 288 285 283 280 277 275 272 271 271 271 271 272 272 273
112 112 111 110 109 109 109 110 110 111 109 109 110 113 115 118 115 112 108 106 106 105 104 103 103 104 105 102 90 34 352 337 326 316 308 301 299 295 292 290 287 284 283 280 279 279 279 278 277 277 277 278 281 283
112 111 111 112 112 110 109 110 109 109 110 111 110 110 107 106 106 104 102 101 98 94 88 80 72 54 22 355 339 330 324 320 316 312 308 304 300 296 293 290 288 286 285 285 285 285 285 285 286 287 288 288 289 289
112 112 112 112 112 110 110 110 110 111 109 109 107 105 101 98 93 88 84 82 78 74 58 43 22 4 352 342 337 332 326 322 317 313 310 306 303 300 298 296 294 293 292 292 292 292 292 291 291 291 291 291 291 291
115 114 113 111 109 109 107 107 106 104 103 103 102 101 97 93 83 76 68 57 42 27 16 8 359 351 346 340 334 330 326 322 319 315 312 310 307 304 303 302 301 301 299 299 298 297 296 295 295 295 295 295 295 295
117 117 115 116 115 113 112 111 109 105 104 102 101 93 78 61 50 42 37 28 18 10 3 357 349 342 335 330 325 322 318 315 313 311 309 307 306 306 306 305 305 303 302 301 301 300 300 300 300 300 300 300 299 299
121 118 117 116 113 113 112 109 102 95 81 75 70 58 50 44 38 31 19 11 5 358 351 345 339 332 327 322 321 319 316 313 313 311 310 310 309 309 308 307 306 304 302 301 302 302 303 303 302 302 301 301 300 299
123 121 118 116 116 110 105 98 89 80 70 67 62 49 36 25 15 9 4 359 352 344 339 334 331 328 325 322 320 318 315 314 313 312 312 313 313 310 308 306 304 304 305 306 306 306 305 305 304 304 303 302 301 300
129 127 122 118 113 109 105 100 92 84 58 42 28 20 13 3 355 350 345 342 338 334 331 328 325 322 320 318 319 316 314 315 314 316 316 315 313 311 310 308 308 309 310 309 308 307 307 307 306 305 304 303 302 301
132 130 126 121 120 122 124 107 62 36 22 8 357 349 345 343 339 338 337 333 329 326 325 323 321 320 318 318 317 315 315 317 319 320 319 317 314 313 312 312 313 313 312 311 310 309 308 307 306 306 305 305 305 304
136 136 135 139 137 109 45 30 10 353 341 335 334 335 333 332 331 332 330 327 323 321 321 319 319 318 318 316 314 315 317 319 319 319 318 317 316 316 316 316 316 315 314 312 311 310 310 310 309 309 309 308 307 307
148 149 150 150 3 348 343 332 321 314 316 322 326 328 330 332 328 327 326 323 322 321 321 320 320 319 316 316 316 317 319 320 320 318 318 318 318 318 317 317 316 316 316 315 314 314 313 313 313 312 311 310 310 311
171 180 211 277 302 308 308 307 307 308 313 320 324 326 327 327 326 324 322 322 322 322 322 321 319 317 317 316 317 318 320 320 319 318 318 318 319 319 319 319 319 319 318 318 318 317 316 316 316 315 314 314 314 314
229 251 270 287 293 296 301 305 307 310 313 317 319 320 323 324 323 321 320 321 322 322 321 320 318 317 316 317 318 320 320 318 318 319 320 321 321 321 321 321 321 321 320 320 318 318 318 318 318 317 316 316 315 316
Height
10091 10090 10090 10089 10086 10083 10079 10076 10074 10073 10072 10071 10070 10071 10070 10072 10075 10076 10079 10081 10085 10089 10095 10100 10107 10112 10120 10127 10135 10144 10152 10163 10174 10184 10193 10201 10209 10222 10230 10237 10244 10253 10266 10280 10292 10307 10323 10325 10331 10342 10358 10363 10371 10378
10077 10077 10078 10076 10073 10071 10069 10066 10065 10065 10065 10064 10064 10064 10065 10067 10069 10071 10073 10077 10082 10085 10089 10092 10097 10103 10111 10117 10127 10136 10146 10156 10162 10171 10179 10190 10199 10210 10216 10225 10232 10242 10257 10270 10282 10291 10306 10305 10323 10330 10337 10345 10355 10362
10064 10065 10065 10064 10062 10061 10059 10059 10059 10059 10058 10059 10060 10061 10061 10063 10064 10066 10069 10072 10075 10080 10083 10087 10095 10103 10109 10116 10123 10131 10135 10141 10152 10161 10172 10181 10190 10198 10205 10214 10223 10234 10245 10257 10263 10275 10289 10294 10301 10316 10327 10331 10336 10343
10052 10053 10053 10052 10052 10051 10051 10052 10053 10053 10053 10054 10056 10057 10057 10059 10061 10063 10066 10069 10072 10077 10082 10088 10091 10098 10105 10109 10115 10124 10133 10140 10148 10157 10164 10171 10178 10188 10197 10206 10214 10225 10233 10239 10247 10261 10275 10281 10282 10297 10306 10307 10319 10327
10039 10040 10040 10042 10042 10043 10044 10046 10046 10046 10048 10050 10051 10053 10054 10055 10057 10060 10063 10066 10070 10074 10077 10082 10088 10092 10098 10105 10114 10120 10128 10136 10144 10152 10157 10164 10172 10181 10190 10198 10207 10217 10222 10228 10239 10249 10258 10261 10267 10278 10283 10289 10298 10306
10027 10029 10031 10032 10034 10035 10037 10038 10039 10040 10043 10046 10047 10049 10051 10053 10055 10057 10059 10063 10066 10071 10077 10082 10087 10092 10098 10105 10109 10116 10124 10132 10139 10146 10153 10159 10166 10174 10183 10190 10198 10204 10207 10213 10223 10230 10232 10241 10250 10260 10261 10261 10281 10290
10017 10019 10021 10023 10025 10026 10028 10030 10032 10035 10039 10042 10044 10047 10051 10056 10058 10059 10061 10062 10067 10072 10076 10081 10086 10092 10097 10103 10109 10116 10122 10129 10135 10142 10148 10154 10161 10168 10176 10182 10185 10192 10195 10202 10213 10224 10228 10233 10239 10247 10251 10253 10264 10272
10008 10011 10013 10014 10016 10018 10021 10023 10026 10030 10035 10040 10042 10046 10050 10053 10053 10055 10059 10063 10067 10071 10076 10082 10086 10092 10097 10102 10108 10115 10121 10127 10132 10138 10145 10151 10157 10162 10170 10172 10179 10186 10188 10194 10203 10209 10214 10221 10223 10230 10236 10238 10244 10251
10000 10003 10005 10007 10009 10012 10014 10017 10022 10027 10034 10038 10040 10043 10048 10050 10053 10057 10060 10063 10067 10072 10076 10082 10087 10091 10096 10102 10107 10113 10119 10125 10131 10135 10141 10146 10152 10157 10161 10165 10171 10176 10178 10184 10189 10195 10201 10207 10209 10213 10219 10223 10225 10230
9994 9996 9998 10001 10003 10005 10008 10013 10018 10025 10030 10035 10038 10042 10048 10049 10054 10057 10061 10065 10068 10072 10077 10082 10087 10091 10097 10101 10106 10112 10117 10122 10126 10132 10137 10142 10146 10149 10153 10158 10163 10169 10173 10178 10180 10183 10188 10193 10196 10200 10205 10208 10211 10213
9988 9990 9992 9995 9997 10001 10006 10011 10015 10021 10027 10034 10037 10041 10047 10051 10055 10058 10061 10065 10068 10073 10079 10084 10089 10094 10098 10104 10107 10110 10114 10119 10125 10131 10135 10137 10141 10144 10148 10153 10157 10161 10165 10168 10171 10174 10177 10181 10183 10187 10191 10193 10195 10197
9984 9985 9987 9990 9995 10000 10005 10008 10011 10017 10025 10033 10037 10041 10044 10049 10054 10058 10062 10067 10072 10076 10080 10085 10089 10094 10099 10103 10106 10110 10114 10118 10122 10127 10131 10133 10136 10139 10143 10147 10152 10155 10158 10161 10163 10166 10168 10171 10173 10175 10178 10180 10182 10182
9981 9983 9986 9989 9993 9998 10002 10007 10013 10020 10027 10033 10038 10041 10045 10048 10053 10058 10063 10067 10073 10077 10082 10086 10090 10094 10098 10102 10105 10108 10112 10116 10120 10124 10125 10129 10132 10136 10139 10144 10147 10149 10151 10153 10155 10157 10159 10161 10162 10163 10164 10165 10166 10166
9981 9983 9986 9990 9993 9998 10003 10010 10016 10021 10026 10031 10035 10041 10046 10050 10056 10062 10067 10072 10075 10079 10083 10087 10091 10094 10098 10102 10105 10108 10111 10115 10117 10121 10126 10126 10128 10130 10133 10136 10138 10139 10141 10143 10144 10146 10148 10148 10149 10150 10150 10151 10151 10150
9983 9985 9989 9992 9997 10002 10007 10013 10017 10022 10028 10033 10039 10046 10052 10056 10059 10061 10065 10069 10074 10079 10083 10087 10091 10095 10098 10101 10105 10108 10111 10112 10117 10121 10122 10123 10124 10125 10126 10128 10130 10131 10132 10133 10134 10136 10136 10137 10138 10138 10137 10136 10135 10134
9987 9990 9993 9996 10001 10006 10011 10016 10021 10027 10032 10039 10043 10046 10050 10054 10059 10064 10069 10074 10078 10081 10085 10089 10093 10096 10099 10102 10105 10107 10109 10112 10115 10116 10116 10117 10118 10118 10119 10120 10121 10122 10122 10123 10124 10124 10124 10123 10123 10123 10122 10121 10119 10118
9993 9995 9999 10002 10005 10009 10015 10020 10025 10030 10035 10040 10044 10048 10053 10058 10063 10067 10072 10076 10079 10083 10086 10089 10092 10094 10097 10099 10102 10103 10105 10106 10108 10110 10111 10112 10112 10112 10112 10112 10112 10112 10113 10112 10112 10111 10110 10110 10109 10108 10107 10106 10105 10103
9998 10002 10006 10009 10013 10017 10020 10025 10029 10034 10039 10044 10049 10053 10058 10062 10066 10069 10073 10076 10079 10082 10085 10088 10091 10093 10096 10097 10099 10101 10103 10104 10105 10106 10107 10107 10107 10107 10107 10106 10106 10105 10104 10104 10103 10102 10101 10100 10098 10097 10095 10093 10091 10089
10008 10011 10014 10017 10021 10025 10028 10032 10036 10040 10045 10049 10053 10057 10061 10065 10068 10071 10075 10078 10081 10084 10087 10089 10092 10093 10096 10098 10100 10102 10103 10103 10104 10104 10105 10105 10104 10103 10102 10101 10100 10099 10098 10096 10094 10093 10091 10089 10087 10085 10083 10079 10077 10075
10018 10021 10024 10027 10031 10034 10037 10040 10044 10048 10052 10056 10060 10064 10068 10071 10074 10077 10080 10083 10085 10088 10090 10093 10096 10098 10101 10102 10103 10104 10105 10105 10105 10104 10103 10103 10101 10100 10098 10097 10095 10093 10090 10088 10085 10082 10079 10077 10074 10071 10068 10065 10061 10061
10028 10031 10034 10037 10041 10046 10047 10051 10054 10058 10060 10064 10068 10072 10076 10079 10081 10084 10086 10089 10092 10094 10096 10099 10101 10103 10104 10105 10106 10106 10106 10106 10105 10104 10103 10101 10098 10095 10092 10089 10085 10082 10079 10075 10072 10068 10064 10061 10057 10056 10052 10049 10045 10042
10038 10041 10044 10048 10052 10055 10058 10062 10064 10068 10071 10074 10077 10081 10083 10086 10088 10091 10093 10096 10099 10101 10104 10105 10107 10108 10108 10108 10108 10106 10104 10102 10100 10097 10094 10091 10087 10084 10080 10076 10073 10068 10065 10060 10055 10052 10050 10046 10042 10038 10034 10029 10026 10022
10050 10054 10057 10060 10063 10067 10069 10071 10074 10077 10080 10083 10086 10090 10093 10095 10098 10100 10102 10104 10105 10107 10107 10107 10107 10106 10105 10103 10101 10099 10097 10094 10091 10088 10085 10081 10076 10072 10067 10063 10058 10053 10049 10045 10040 10036 10032 10027 10023 10019 10015 10010 10006 10002
10061 10063 10066 10069 10073 10076 10079 10082 10085 10088 10090 10093 10096 10099 10101 10103 10105 10106 10106 10106 10106 10106 10106 10105 10103 10101 10099 10097 10095 10092 10088 10085 10081 10077 10072 10067 10062 10056 10051 10046 10041 10037 10031 10026 10022 10017 10013 10009 10004 10000 9996 9992 9988 9983
10070 10071 10074 10078 10081 10085 10088 10092 10095 10097 10100 10102 10103 10104 10105 10106 10106 10107 10106 10106 10105 10103 10102 10100 10099 10098 10096 10093 10089 10086 10081 10076 10070 10065 10059 10053 10047 10040 10035 10029 10025 10019 10015 10010 10005 10001 9997 9992 9988 9983 9979 9975 9971 9967
10077 10079 10083 10087 10091 10094 10096 10099 10102 10104 10104 10105 10106 10107 10107 10107 10106 10105 10105 10104 10103 10102 10100 10098 10096 10093 10089 10085 10081 10076 10070 10063 10057 10051 10045 10038 10032 10026 10020 10012 10006 10004 10001 9997 9992 9986 9982 9978 9974 9969 9965 9961 9957 9952
10085 10088 10091 10094 10097 10099 10101 10103 10104 10105 10106 10107 10107 10107 10106 10106 10105 10105 10104 10102 10101 10098 10096 10093 10089 10085 10081 10076 10070 10065 10057 10050 10043 10035 10029 10023 10018 10012 10007 10002 9997 9991 9986 9982 9979 9974 9969 9964 9960 9956 9951 9947 9943 9939
10090 10094 10096 10099 10101 10102 10104 10105 10106 10107 10107 10107 10106 10105 10105 10105 10104 10103 10101 10099 10096 10093 10090 10086 10081 10077 10071 10065 10059 10052 10044 10037 10029 10022 10016 10011 10004 9999 9994 9989 9984 9980 9976 9971 9966 9962 9957 9953 9948 9943 9939 9934 9929 9925
10094 10097 10099 10101 10103 10104 10105 10106 10106 10106 10106 10106 10106 10106 10105 10104 10102 10100 10097 10094 10090 10086 10082 10077 10071 10065 10059 10053 10046 10038 10030 10023 10017 10010 10003 9998 9994 9989 9983 9978 9974 9969 9964 9960 9955 9950 9946 9941 9936 9931 9926 9921 9916 9911
10097 10099 10101 10103 10104 10105 10106 10106 10106 10106 10106 10105 10104 10103 10101 10099 10096 10093 10089 10086 10081 10077 10072 10067 10061 10054 10047 10040 10032 10025 10018 10011 10005 9999 9993 9988 9982 9977 9972 9967 9963 9958 9953 9948 9944 9939 9934 9929 9924 9919 9914 9909 9904 9900
10098 10100 10102 10103 10104 10105 10105 10105 10105 10104 10103 10101 10099 10097 10094 10091 10088 10084 10080 10075 10070 10066 10061 10055 10049 10042 10034 10026 10018 10012 10005 10000 9994 9989 9983 9978 9972 9968 9963 9958 9953 9948 9943 9938 9933 9928 9922 9918 9913 9908 9903 9898 9894 9889
10099 10100 10101 10102 10102 10102 10102 10101 10100 10098 10097 10094 10091 10089 10086 10082 10079 10075 10070 10065 10060 10054 10049 10043 10036 10029 10021 10014 10007 10000 9995 9989 9983 9978 9973 9968 9963 9958 9953 9948 9943 9938 9933 9927 9922 9917 9912 9907 9902 9897 9892 9888 9884 9879
10097 10098 10098 10098 10098 10097 10096 10095 10093 10091 10088 10086 10083 10080 10076 10072 10068 10064 10059 10054 10049 10043 10037 10030 10023 10016 10009 10003 9996 9990 9984 9978 9973 9969 9964 9958 9953 9948 9943 9938 9933 9928 9923 9918 9913 9908 9903 9898 9893 9888 9883 9879 9874 9870